パンスターズ彗星

C/2015 ER61 ( PanSTARRS )

English version
Home page
Updated on February 7, 2017

---------------------------------------------------------------------

・ プロフィール

発見日 2015年3月14日
発見光度 20.7等
発見者 Pan-STARRS 1 telescope (Haleakala)

・ 写真集

・ 軌道要素

Epoch 2017 May 7.0 TT = JDT 2457880.5
T 2017 May  9.94920 TT                                  MPCW
q   1.0421170            (2000.0)            P               Q
z  +0.0025987      Peri.   68.19832     +0.54603168     +0.83282649
 +/-0.0000028      Node   235.21734     -0.80368148     +0.49012066
e   0.9972918      Incl.    6.34908     -0.23652796     +0.25725817
From 315 observations 2015 Jan. 21-2016 Apr. 16, mean residual 0".3.

・ 星図

・ 光度変化

        m1 = 3.0 + 5 logΔ + 15.0 log r  [    ,-390]  (              〜2016年 4月14日)
        m1 = 6.5 + 5 logΔ + 10.0 log r  [-390,    ]  (2016年 4月14日〜              )

---------------------------------------------------------------------

軌道要素はM.P.E.C. 2016-H35に掲載されたものです。
星図はステラナビゲータ Ver.10 (アストロアーツ) で作成したものです。
光度グラフはComet for Windowsで作成したものです。

---------------------------------------------------------------------

Copyright(C) Seiichi Yoshida (comet@aerith.net). All rights reserved.